Regional Weather Roundup
Issued by NWS Wakefield, VA

Home | Current Version | Previous Version | Graphics & Text | Print | Product List | Glossary On
Versions: 1 2 3 4 5 6 7 8 9 10 11 12 13 14 15 16 17 18 19 20 21 22 23 24 25 26 27 28 29 30 31 32 33 34 35 36 37 38 39 40 41 42 43 44 45 46 47 48 49 50
000
ASUS41 KAKQ 202110
RWRAKQ

REGIONAL WEATHER ROUNDUP
NATIONAL WEATHER SERVICE WAKEFIELD VA
400 PM EST SAT DEC 20 2014

Note: "fair" indicates few or no clouds below 12,000 feet with no
significant weather and/or obstructions to visibility. * = Denotes
station may not report precipitation (e.g., rain,snow,etc.),
thunder or fog.

VAZ042-051-052>054-056-202200-
NORTHERN VIRGINIA

CITY           SKY/WX    TMP DP  RH WIND       PRES   REMARKS
WASH NATIONAL  CLOUDY    39  20  46 VRB3      30.28R
DULLES         MOCLDY    34  20  56 CALM      30.26R
FORT BELVOIR   MOCLDY    37  21  53 CALM      30.28R
QUANTICO       CLOUDY    36  22  56 CALM      30.29S
FREDERICKSBRG* CLOUDY    37  25  60 CALM      30.27R
STAFFORD*      CLOUDY    35  22  58 E3        30.31R
WARRENTON      CLOUDY    37  29  74 CALM      30.25R
CULPEPER*      CLOUDY    37  27  65 CALM      30.26S
MANASSAS*      CLOUDY    36  23  60 CALM      30.27R
LEESBURG*      CLOUDY    36  27  69 CALM      30.27R
WINCHESTER     CLOUDY    34  19  55 SE3       30.23S
FRONT ROYAL*   CLOUDY    34  25  69 CALM      30.22R
LURAY*         CLOUDY    36  28  75 CALM      30.21R
$$

VAZ048-049-060>072-079>083-202200-
CENTRAL AND SOUTH CENTRAL VIRGINIA

CITY           SKY/WX    TMP DP  RH WIND       PRES   REMARKS
RICHMOND       MOCLDY    39  20  46 CALM      30.26S
CHESTERFIELD*  CLOUDY    37  16  41 CALM      30.27S
PETERSBURG*    CLOUDY    39  23  52 CALM      30.27R
HANOVER        MOCLDY    36  21  54 CALM      30.28R
TAPPAHANNOCK*  MOCLDY    37  20  51 CALM      30.28R
QUINTON*       CLOUDY    37  22  56 MISG      30.26S
CHARLOTTSVILLE CLOUDY    37  24  59 S3        30.23R
GORDONSVILLE*  CLOUDY    36  24  63 CALM      30.24R
ORANGE*        CLOUDY    36  27  69 CALM      30.26S
LOUISA*        CLOUDY    37  27  65 CALM      30.24R
BUMPASS*       CLOUDY    35  24  63 CALM      30.25S
FARMVILLE*     CLOUDY    41  26  54 CALM      30.24S
CREWE*         MOCLDY    38  22  53 CALM      30.24S
FORT PICKETT*  MOCLDY    38  23  56 CALM      30.24S
CHASE CITY*    CLOUDY    41  30  66 CALM      30.24S
CLARKSVILLE*   CLOUDY    37  30  75 CALM      30.24R
SOUTH HILL*    MOCLDY    38  26  61 CALM      30.30S
LAWRENCEVILLE* PTCLDY    38  26  62 CALM      30.25R
EMPORIA*       CLOUDY    37  28  70 CALM      30.28S
$$

VAZ088>098-202200-
SOUTHEAST VIRGINIA

CITY           SKY/WX    TMP DP  RH WIND       PRES   REMARKS
NORFOLK        CLOUDY    39  28  64 N3        30.27R
VIRGINIA BEACH CLOUDY    41  29  62 N5        30.27R
NORFOLK NAVAL  CLOUDY    42  30  62 CALM      30.28R
WEST POINT*    CLOUDY    39  24  54 CALM      30.29S
SALUDA*        CLOUDY    36  25  65 NW3       30.27R
NEWPORT NEWS   LGT RAIN  42  27  55 VRB3      30.26S
LANGLEY AFB    CLOUDY    39  29  68 NE3       30.28R
FORT EUSTIS    MOCLDY    39  26  59 NW3       30.25R
WILLIAMSBURG*  PTCLDY    43  28  56 CALM      30.27S
HR EXEC AP*    CLOUDY    39  28  65 E5        30.28S
FRANKLIN*      MOCLDY    39  28  65 CALM      30.27S
WAKEFIELD      CLOUDY    41  26  55 CALM      30.26S
$$

VAZ020-022-025-037-045-202200-
WEST CENTRAL AND SOUTHWEST VIRGINIA

CITY           SKY/WX    TMP DP  RH WIND       PRES   REMARKS
STAUNTON*      CLOUDY    36  25  64 CALM      30.21R
WAYNESBORO*    CLOUDY    35  25  66 E6        30.18R
HOT SPRINGS VA CLOUDY    32  27  83 W8        30.07R
LYNCHBURG      CLOUDY    36  26  67 CALM      30.23R
DANVILLE       CLOUDY    39  27  62 CALM      30.24S
SOUTH BOSTON*  CLOUDY    39  26  61 CALM      30.25R
MARTINSVILLE   CLOUDY    40  30  65 CALM      30.24R
ROANOKE        FLURRIES  38  25  59 S3        30.22R
BLACKSBURG     CLOUDY    34  28  77 CALM      30.19R
DUBLIN*        CLOUDY    38  32  81 CALM      30.17S
MARION*        CLOUDY    38  33  83 CALM      30.16S
HILLSVILLE*    CLOUDY    38  30  72 S3        30.13S
RICHLANDS*     CLOUDY    35  32  90 CALM      30.14R
WISE*          CLOUDY    37  30  75 N3        30.15R
ABINGDON*      CLOUDY    41  37  84 CALM      30.16R
$$

MDZ021>025-VAZ099-100-202200-
SOUTHERN MARYLAND AND THE DELMARVA PENINSULA

CITY           SKY/WX    TMP DP  RH WIND       PRES   REMARKS
PATUXENT RIVER CLOUDY    36  23  59 NW3       30.27S
BAY BRIDGE APT NOT AVBL
LEONARDTOWN    CLOUDY    34  23  64 SW3       30.29R
DOVER          CLOUDY    34  25  68 E5        30.25R
GEORGETOWN     CLOUDY    37  25  61 N5        30.27R
EASTON         MOCLDY    37  27  65 W3        30.30S
CAMBRIDGE      MOCLDY    37  27  65 CALM      30.27S
SALISBURY      CLOUDY    39  24  55 W3        30.27R
OCEAN CITY     MOCLDY    37  25  61 CALM      30.27R
WALLOPS ISLAND CLOUDY    36  25  64 NW3       30.27S
ACCOMACK*      CLOUDY    36  27  69 CALM      30.27R
$$

NCZ012>017-030>032-202200-
NORTH CENTRAL AND EASTERN NORTH CAROLINA

CITY           SKY/WX    TMP DP  RH WIND       PRES   REMARKS
ROANOKE RAPIDS CLOUDY    39  30  70 CALM      30.26R
RALEIGH        CLOUDY    38  33  82 CALM      30.25S FOG
ELIZABETH CITY CLOUDY    45  30  55 CALM      30.27R
AHOSKIE*       MOCLDY    40  29  66 CALM      30.27R
EDENTON*       CLOUDY    42  32  67 NE3       30.27R
CURRITUCK*     MOCLDY    41  29  64 N5        30.28R
KILL DEVIL HLS CLOUDY    42  32  70 N5        30.25R
MANTEO         CLOUDY    41  33  72 N9        30.26R
CAPE HATTERAS  CLOUDY    42  37  82 NE7       30.25R
TARBORO*       CLOUDY    41  32  70 CALM      30.27S
GOLDSBORO      MOCLDY    40  39  98 CALM      30.24R
WASHINGTON     CLOUDY    40  34  80 NE3       30.27R
GREENVILLE     CLOUDY    41  34  75 E3        30.27S
NEW BERN       LGT RAIN  43  37  79 N6        30.27S
WILMINGTON     LGT RAIN  44  41  89 NE10      30.22S
$$

VAZ048-202200-
ELSEWHERE

CITY           SKY/WX    TMP DP  RH WIND       PRES   REMARKS
HARRISBURG PA  MOCLDY    33  21  61 NW5       30.25R
BALTIMORE      MOCLDY    36  21  54 CALM      30.26R
ANNAPOLIS      PTCLDY    36  23  59 NE6       30.28R
ANDREWS AFB    MOCLDY    36  21  53 W3        30.25R
PHILADELPHIA   CLOUDY    35  21  56 NW5       30.28R
HENDERSON NC   CLOUDY    38  31  77 CALM      30.24S
GREENSBORO     CLOUDY    39  32  76 SE3       30.21R
ROCKY MOUNT    CLOUDY    40  33  76 CALM      30.26S
$$

VAZ100-202200-
MARINE

STATION/POSITION TIME  TEMP    WIND        PRES    WAVE   SWELL
                       AIR SEA DIR/SP/G            HT/PER HT/PER
                 (UTC) (F)     (DEG/KT/KT) (MB)    (FT/S) (FT/S)
CAPE MAY NJ      2100   34 43  320/  3/  4 1024.7S
LEWES DE         2100   35 41   20/  5/  5 1025.0S
15NM E FENWICK I 2100   36 46              1024.7R   1/10
OCEAN-CITY-INLET 2100   37 43   20/  4/  5 1024.5S
WACHAPREAGUE VA  2100   37 40  350/  3/  6 1025.0R
THOMAS POINT MD  2100   35 41  140/  1/  2 1026.3R
GOOSES REEF MD   2100   35      CALM  /  2 1024.3R   0
COVE POINT MD    2100   34      60/  1/  2 1025.0R
SOLOMONS ISLAND  2100      43                N/A
BISHOPS HEAD MD  2100   35 38  320/  3/  4 1024.6R
POTOMAC MD       2000   36 43  320/  4/  4 1023.9F   0
CAMBRIDGE MD     2100   36 40  330/  4/  5 1024.8S
LEWISETTA VA     2100   36 41  360/  3/  5 1024.9R
RAPPAHANNOCK LGT 2100          340/  5/  6 1025.6R
STINGRAY PT      2100   37 44  310/  2/  4 1025.6R   1
YORK RVR RNG VA  2100   38      10/  2/  3 1024.5S
YORKTOWN VA      2100   40 45  350/  2/  3 1024.7F
JAMESTOWN VA     2100   38 45  310/  2/  4   N/A     0
DOMINION TERM VA 2100   39      CALM  /  1 1024.8F
KIPTOPEKE VA     2100      49   10/  5/  6   N/A
CHES BAY BRIDGE  2100   38 45  330/  3/  5 1024.6R
CAPE HENRY VA    2100   37     340/  2/  6 1023.7R
CHESAPEAKE LGHT  2000   38     340/  5/  6 1025.2S
WILLOUBY STN VA  2100   38      50/  3/  4 1025.4R
S CRANEY ISL VA  2100           40/  2/  3 1024.8R
CAPE HENRY BUOY  2100      49                N/A     2/ 5
1ST LANDING BUOY 2100   38 45  350/  4/  6 1024.7R   1/ 3
CAPE CHARLES BUO 2100      47                N/A     2/ 6   2/ 6
64NM E OF VA BCH 2100   42 54  340/ 12/ 14 1023.5R   2/ 6   2/ 6
DUCK PIER NC     2100   41 46   10/  7/  9 1023.9R
44100 DUCK FRF   2100      52                N/A     3/ 6
44056 DUCK FRF   2100      47                N/A     2/ 5
OREGON INLET NC  2100   42 49  360/  7/ 10 1024.3R
HATTERAS NC      2100   44 52   30/  9/ 13 1024.3R
DIAMOND SHLS NC  2100   49                 1023.9R   3/ 6
CAPE LOOKOUT NC  2000   43      20/ 12/ 15 1023.6R
$$


USA.gov is the U.S. government's official web portal to all federal, state and local government web resources and services.